Flag for Central African Republic Weather past 2 weeks in Bambari, Central African Republic

Now
90 °F

Partly sunny.


Feels Like: 98 °F
Forecast: 76 / 95 °F
Wind: 7 mph from South

Location: Bangui Airport

Current Time: Jan 27, 2015 at 12:24:45 PM

Latest Report: Jan 27, 2015 at 11:00 AM


Visibility: N/A

Pressure: 29.86 "Hg

Humidity: 59%

Dew point: 73 °F

Location of BambariLocation

Historic Weather in Bambari — Graph

°F

Bambari temperature yesterday

Maximum temperature yesterday: 97 °F (at 2:00 PM)
Minimum temperature yesterday: 73 °F (at 5:00 AM)
Average temperature yesterday: 83 °F

Past Weeks' High & Low Weather Summary

 TemperatureHumidityPressure
High99 °F (Jan 22, 3:00 PM)100% (Jan 24, 3:00 AM)30.01 "Hg (Jan 24, 3:00 AM)
Low54 °F (Jan 14, 6:00 AM)14% (Jan 15, 2:00 PM)29.71 "Hg (Jan 24, 3:00 PM)
Average78 °F61%29.86 "Hg
* Reported Jan 12 11:00 AM — Jan 27 11:00 AM, Bambari, Weather by CustomWeather, © 2014

Note: Actual official high and low records may vary slightly from our data, if they occured in-between our weather recording intervals... More about our weather records

Advertising

Bambari weather history for previous 24 hours

 ConditionsComfort  
Time TempWeatherWind HumidityBarometerVisibility
11:00 AM
Jan 27
90 °FPartly sunny.7 mph59%29.86 "HgN/A
10:00 AM88 °FPartly sunny.5 mph59%29.89 "HgN/A
9:00 AM82 °FPassing clouds.7 mph74%29.92 "HgN/A
8:00 AM79 °FClear.2 mph84%29.89 "Hg5 mi
7:00 AM77 °FPartly sunny.5 mph89%29.86 "Hg5 mi
5:00 AM77 °FClear.6 mph89%29.83 "Hg10 mi
4:00 AM77 °FClear.3 mph89%29.83 "Hg10 mi
3:00 AM77 °FClear.2 mph89%29.80 "Hg10 mi
2:00 AM77 °FClear.No wind89%29.80 "Hg10 mi
1:00 AM77 °FClear.No wind89%29.83 "Hg10 mi
12:00 AM79 °FClear.No wind84%29.86 "Hg5 mi
11:00 PM
Jan 26
79 °FThunderstorms. Passing clouds.2 mph84%29.86 "Hg5 mi
10:00 PM81 °FThunderstorms. Passing clouds.No wind79%29.86 "Hg5 mi
9:00 PM82 °FPassing clouds.N/A70%29.86 "HgN/A
8:00 PM84 °FPassing clouds.5 mph70%29.83 "HgN/A
7:00 PM86 °FPassing clouds.No wind66%29.80 "HgN/A
6:00 PM88 °FPassing clouds.7 mph62%29.77 "HgN/A
5:00 PM91 °FPartly sunny.9 mph52%29.74 "HgN/A
4:00 PM93 °FBroken clouds.8 mph49%29.74 "HgN/A
3:00 PM95 °FPartly sunny.8 mph44%29.77 "HgN/A
2:00 PM97 °FPartly sunny.2 mph42%29.77 "HgN/A
1:00 PM93 °FPartly sunny.7 mph47%29.80 "HgN/A
12:00 PM91 °FSunny.5 mph46%29.83 "Hg10 mi
Weather by CustomWeather, © 2014

See weather overviewHow to use our weather pages